Location: Puketoi
(40.5833°S, 176.0167°E)
Time: 15:20:26
(UTC+00:00)

Cosmos 1674 Rocket - Pass Details

Date: 08 February 2023
Orbit: 601 x 629 km, 82.5° (Epoch: 22 March)

Event Time Altitude Azimuth Distance (km) Brightness Sun altitude
Exits shadow 15:17:40 42° 23° (NNE) 889 4.1 -22.2°
Maximum altitude 15:18:58 64° 85° (E) 695 3.9 -22.1°
Drops below altitude 10° 15:23:21 10° 166° (SSE) 2,003 7.0 -21.5°
Sets 15:25:36 0° 169° (SSE) 2,912 7.9 -21.2°
